When you browse on this site, cookies collect data to enhance your experience and personalize the content and advertising you see.
Visit our Privacy Policy to learn more. By continuing to use the site, you agree to this use of cookies and data.
  • In Portugal
  • List of Countries
  • For 7 days
  • Water Temperature
  • Satellite Maps
  • Weather Map
  • Weather Widgets
  • user-avatar
    Login

    Hourly Weather Temnoe

    Today, 26 April, Friday

    Time Temperature Precipitation Wind Pressure Humidity
    00:00 +2°C° 0 mm 1 mps 747 mmHg 82%
    01:00 +1°C° 0 mm 1 mps 747 mmHg 84%
    02:00 +1°C° 0 mm 1 mps 747 mmHg 85%
    03:00 0°C° 0 mm 1 mps 747 mmHg 85%
    04:00 0°C° 0 mm 1 mps 747 mmHg 86%
    05:00 +1°C° 0 mm 1 mps 747 mmHg 79%
    06:00 +2°C° 0 mm 1 mps 747 mmHg 73%
    07:00 +3°C° 0 mm 1 mps 747 mmHg 66%
    08:00 +4°C° 0 mm 1 mps 747 mmHg 58%
    09:00 +5°C° 0 mm 2 mps 747 mmHg 50%
    10:00 +6°C° 0 mm 2 mps 746 mmHg 42%
    11:00 +7°C° 0 mm 3 mps 746 mmHg 42%
    12:00 +8°C° 0 mm 3 mps 746 mmHg 43%
    13:00 +7°C° 0 mm 4 mps 746 mmHg 43%
    14:00 +7°C° 0.3 mm 4 mps 745 mmHg 47%
    15:00 +7°C° 0.3 mm 5 mps 745 mmHg 50%
    16:00 +7°C° 0.3 mm 5 mps 745 mmHg 53%
    17:00 +6°C° 0.2 mm 4 mps 745 mmHg 56%
    18:00 +6°C° 0.2 mm 4 mps 745 mmHg 59%
    19:00 +5°C° 0.2 mm 3 mps 745 mmHg 62%
    20:00 +5°C° 0 mm 2 mps 745 mmHg 66%
    21:00 +4°C° 0 mm 2 mps 745 mmHg 69%
    22:00 +3°C° 0 mm 2 mps 745 mmHg 73%
    23:00 +3°C° 0 mm 1 mps 745 mmHg 75%

    Tomorrow, 27 April, Saturday

    Time Temperature Precipitation Wind Pressure Humidity
    00:00 +3°C° 0 mm 1 mps 745 mmHg 77%
    01:00 +2°C° 0 mm 1 mps 745 mmHg 80%
    02:00 +1°C° 0 mm 1 mps 745 mmHg 80%
    03:00 +1°C° 0 mm 1 mps 745 mmHg 81%
    04:00 +1°C° 0 mm 1 mps 746 mmHg 82%
    05:00 +2°C° 0 mm 1 mps 745 mmHg 78%
    06:00 +2°C° 0 mm 2 mps 745 mmHg 73%
    07:00 +3°C° 0 mm 2 mps 745 mmHg 68%
    08:00 +3°C° 0 mm 3 mps 745 mmHg 64%
    09:00 +5°C° 0 mm 4 mps 744 mmHg 59%
    10:00 +7°C° 0 mm 6 mps 744 mmHg 54%
    11:00 +8°C° 0 mm 6 mps 743 mmHg 51%
    12:00 +9°C° 0 mm 7 mps 742 mmHg 47%
    13:00 +11°C° 0 mm 7 mps 741 mmHg 44%
    14:00 +11°C° 0 mm 7 mps 741 mmHg 42%
    15:00 +12°C° 0 mm 7 mps 740 mmHg 40%
    16:00 +12°C° 0 mm 7 mps 740 mmHg 38%
    17:00 +11°C° 0 mm 6 mps 739 mmHg 43%
    18:00 +10°C° 0 mm 5 mps 739 mmHg 48%
    19:00 +11°C° 0 mm 4 mps 738 mmHg 53%
    20:00 +10°C° 0 mm 4 mps 738 mmHg 56%
    21:00 +8°C° 0 mm 4 mps 738 mmHg 59%
    22:00 +7°C° 0 mm 4 mps 738 mmHg 62%
    23:00 +7°C° 0 mm 4 mps 737 mmHg 62%

    Day after tomorrow, 28 April, Sunday

    Time Temperature Precipitation Wind Pressure Humidity
    00:00 +7°C° 0 mm 5 mps 737 mmHg 63%
    01:00 +7°C° 0 mm 5 mps 736 mmHg 63%
    02:00 +7°C° 0.2 mm 5 mps 736 mmHg 65%
    03:00 +7°C° 0.2 mm 4 mps 735 mmHg 66%
    04:00 +7°C° 0.2 mm 4 mps 735 mmHg 68%
    05:00 +7°C° 0.4 mm 4 mps 734 mmHg 73%
    06:00 +6°C° 0.4 mm 4 mps 734 mmHg 78%
    07:00 +6°C° 0.4 mm 4 mps 733 mmHg 83%
    08:00 +4°C° 1.7 mm 4 mps 734 mmHg 86%
    09:00 +2°C° 1.7 mm 5 mps 734 mmHg 88%
    10:00 -1°C° 1.7 mm 6 mps 734 mmHg 91%
    11:00 0°C° 0.9 mm 5 mps 734 mmHg 90%
    12:00 0°C° 0.9 mm 5 mps 735 mmHg 89%
    13:00 +1°C° 0.9 mm 5 mps 735 mmHg 88%
    14:00 +1°C° 0.1 mm 5 mps 736 mmHg 86%
    15:00 +1°C° 0.1 mm 5 mps 737 mmHg 84%
    16:00 +1°C° 0.1 mm 5 mps 737 mmHg 82%
    17:00 0°C° 0 mm 5 mps 738 mmHg 82%
    18:00 0°C° 0 mm 4 mps 738 mmHg 82%
    19:00 +1°C° 0 mm 3 mps 739 mmHg 82%
    20:00 0°C° 0 mm 3 mps 739 mmHg 84%
    21:00 -1°C° 0 mm 3 mps 740 mmHg 86%
    22:00 -2°C° 0 mm 3 mps 740 mmHg 89%
    23:00 -2°C° 0 mm 3 mps 741 mmHg 89%

    29 April, Monday

    Time Temperature Precipitation Wind Pressure Humidity
    00:00 -4°C° 0 mm 3 mps 741 mmHg 90%
    01:00 -4°C° 0 mm 3 mps 741 mmHg 91%
    02:00 -5°C° 0 mm 3 mps 742 mmHg 91%
    03:00 -5°C° 0 mm 3 mps 742 mmHg 91%
    04:00 -6°C° 0 mm 3 mps 743 mmHg 91%
    05:00 -5°C° 0 mm 3 mps 743 mmHg 86%
    06:00 -4°C° 0 mm 3 mps 743 mmHg 81%
    07:00 -3°C° 0 mm 4 mps 744 mmHg 76%
    08:00 -2°C° 0 mm 4 mps 744 mmHg 69%
    09:00 -1°C° 0 mm 4 mps 744 mmHg 62%
    10:00 0°C° 0 mm 4 mps 745 mmHg 56%
    11:00 +1°C° 0 mm 4 mps 745 mmHg 53%
    12:00 +1°C° 0 mm 4 mps 745 mmHg 50%
    13:00 +3°C° 0 mm 4 mps 745 mmHg 46%
    14:00 +3°C° 0.1 mm 3 mps 745 mmHg 47%
    15:00 +3°C° 0.1 mm 3 mps 745 mmHg 48%
    16:00 +3°C° 0.1 mm 3 mps 745 mmHg 48%
    17:00 +2°C° 0.2 mm 3 mps 745 mmHg 55%
    18:00 +2°C° 0.2 mm 2 mps 745 mmHg 61%
    19:00 +1°C° 0.2 mm 2 mps 745 mmHg 68%
    20:00 -1°C° 0 mm 2 mps 745 mmHg 74%
    21:00 -2°C° 0 mm 2 mps 745 mmHg 80%
    22:00 -3°C° 0 mm 2 mps 746 mmHg 86%
    23:00 -3°C° 0 mm 2 mps 746 mmHg 87%

    30 April, Tuesday

    Time Temperature Precipitation Wind Pressure Humidity
    00:00 -4°C° 0 mm 2 mps 745 mmHg 89%
    01:00 -4°C° 0 mm 2 mps 745 mmHg 90%
    02:00 -5°C° 0 mm 2 mps 745 mmHg 89%
    03:00 -5°C° 0 mm 2 mps 746 mmHg 89%
    04:00 -5°C° 0 mm 2 mps 746 mmHg 88%
    05:00 -4°C° 0 mm 2 mps 746 mmHg 82%
    06:00 -4°C° 0 mm 3 mps 746 mmHg 76%
    07:00 -2°C° 0 mm 3 mps 746 mmHg 69%
    08:00 -1°C° 0 mm 3 mps 746 mmHg 63%
    09:00 0°C° 0 mm 3 mps 746 mmHg 57%
    10:00 +1°C° 0 mm 3 mps 745 mmHg 51%
    11:00 0°C° 0 mm 4 mps 745 mmHg 50%
    12:00 +1°C° 0 mm 4 mps 745 mmHg 50%
    13:00 +1°C° 0 mm 4 mps 745 mmHg 50%
    14:00 +1°C° 0 mm 4 mps 745 mmHg 49%
    15:00 +3°C° 0 mm 4 mps 745 mmHg 49%
    16:00 +3°C° 0 mm 4 mps 745 mmHg 48%
    17:00 +1°C° 0 mm 4 mps 745 mmHg 52%
    18:00 +2°C° 0 mm 3 mps 745 mmHg 56%
    19:00 +2°C° 0 mm 2 mps 745 mmHg 60%
    20:00 +1°C° 0 mm 2 mps 745 mmHg 65%
    21:00 -1°C° 0 mm 2 mps 745 mmHg 69%
    22:00 -2°C° 0 mm 2 mps 745 mmHg 74%
    23:00 -2°C° 0 mm 2 mps 745 mmHg 74%

    1 May, Wednesday

    Time Temperature Precipitation Wind Pressure Humidity
    00:00 -3°C° 0 mm 2 mps 745 mmHg 75%
    01:00 -3°C° 0 mm 2 mps 744 mmHg 75%
    02:00 -2°C° 0.1 mm 2 mps 744 mmHg 74%
    03:00 -2°C° 0.1 mm 2 mps 744 mmHg 74%
    04:00 -1°C° 0.1 mm 2 mps 744 mmHg 73%
    05:00 -1°C° 0 mm 3 mps 744 mmHg 70%
    06:00 -1°C° 0 mm 4 mps 744 mmHg 67%
    07:00 0°C° 0 mm 4 mps 744 mmHg 64%
    08:00 +1°C° 0.1 mm 5 mps 744 mmHg 62%
    09:00 +2°C° 0.1 mm 5 mps 744 mmHg 61%
    10:00 +3°C° 0.1 mm 5 mps 744 mmHg 60%
    11:00 +5°C° 0.2 mm 5 mps 744 mmHg 59%
    12:00 +5°C° 0.2 mm 6 mps 744 mmHg 58%
    13:00 +5°C° 0.2 mm 6 mps 744 mmHg 57%
    14:00 +5°C° 0.1 mm 6 mps 744 mmHg 57%
    15:00 +6°C° 0.1 mm 5 mps 744 mmHg 57%
    16:00 +7°C° 0.1 mm 5 mps 744 mmHg 56%
    17:00 +6°C° 0.1 mm 4 mps 744 mmHg 60%
    18:00 +5°C° 0.1 mm 4 mps 744 mmHg 64%
    19:00 +5°C° 0.1 mm 3 mps 744 mmHg 68%
    20:00 +4°C° 0 mm 3 mps 745 mmHg 69%
    21:00 +3°C° 0 mm 3 mps 745 mmHg 71%
    22:00 +2°C° 0 mm 3 mps 745 mmHg 72%
    23:00 +2°C° 0 mm 3 mps 745 mmHg 73%
    Show more